Time,TemperatureF,DewpointF,PressureIn,WindDirection,WindDirectionDegrees,WindSpeedMPH,WindSpeedGustMPH,Humidity,HourlyPrecipIn,Conditions,Clouds,dailyrainin,SoftwareType,DateUTC
2013-03-16 00:02:00,51.4,47.7,30.17,NW,306,2.0,2.0,87,0.00,,,0.00,meteohub,2013-03-16 04:02:00,
2013-03-16 00:07:00,51.4,48.0,30.17,NW,306,2.0,3.0,88,0.00,,,0.00,meteohub,2013-03-16 04:07:00,
2013-03-16 00:12:00,52.3,49.3,30.17,NW,306,3.0,3.0,89,0.00,,,0.00,meteohub,2013-03-16 04:12:00,
2013-03-16 00:17:00,53.4,50.2,30.17,NW,306,2.0,3.0,89,0.00,,,0.00,meteohub,2013-03-16 04:17:00,
2013-03-16 00:22:00,54.1,50.4,30.17,NW,306,3.0,3.0,87,0.00,,,0.00,meteohub,2013-03-16 04:22:00,
2013-03-16 00:27:00,54.3,50.2,30.17,NW,306,1.0,4.0,86,0.00,,,0.00,meteohub,2013-03-16 04:27:00,
2013-03-16 00:32:00,54.5,50.7,30.16,NW,306,2.0,4.0,87,0.00,,,0.00,meteohub,2013-03-16 04:32:00,
2013-03-16 00:37:00,54.5,50.4,30.16,NW,306,3.0,4.0,86,0.00,,,0.00,meteohub,2013-03-16 04:37:00,
2013-03-16 00:42:00,54.7,50.9,30.16,NW,306,3.0,3.0,87,0.00,,,0.00,meteohub,2013-03-16 04:42:00,
2013-03-16 00:47:00,54.7,50.9,30.16,NW,306,2.0,3.0,87,0.00,,,0.00,meteohub,2013-03-16 04:47:00,
2013-03-16 00:52:00,54.7,50.9,30.16,NW,306,2.0,3.0,87,0.00,,,0.00,meteohub,2013-03-16 04:52:00,
2013-03-16 00:57:00,54.7,50.9,30.16,NW,306,2.0,3.0,87,0.00,,,0.00,meteohub,2013-03-16 04:57:00,
2013-03-16 01:02:00,54.1,50.4,30.16,NW,306,2.0,3.0,87,0.00,,,0.00,meteohub,2013-03-16 05:02:00,
2013-03-16 01:07:00,54.3,50.9,30.16,NW,306,3.0,4.0,88,0.00,,,0.00,meteohub,2013-03-16 05:07:00,
2013-03-16 01:12:00,54.3,50.9,30.16,NW,306,1.0,4.0,88,0.00,,,0.00,meteohub,2013-03-16 05:12:00,
2013-03-16 01:17:00,54.5,51.3,30.16,NW,306,2.0,4.0,89,0.00,,,0.00,meteohub,2013-03-16 05:17:00,
2013-03-16 01:22:00,54.7,51.4,30.15,NW,306,2.0,3.0,89,0.00,,,0.00,meteohub,2013-03-16 05:22:00,
2013-03-16 01:27:00,54.9,51.4,30.15,NW,306,0.0,4.0,88,0.00,,,0.00,meteohub,2013-03-16 05:27:00,
2013-03-16 01:32:00,54.7,51.3,30.15,NW,306,1.0,4.0,88,0.00,,,0.00,meteohub,2013-03-16 05:32:00,
2013-03-16 01:37:00,54.7,51.3,30.15,NW,306,0.0,4.0,88,0.00,,,0.00,meteohub,2013-03-16 05:37:00,
2013-03-16 01:42:00,54.5,51.1,30.15,NW,306,0.0,3.0,88,0.00,,,0.00,meteohub,2013-03-16 05:42:00,
2013-03-16 01:47:00,54.3,50.9,30.15,NW,306,3.0,3.0,88,0.00,,,0.00,meteohub,2013-03-16 05:47:00,
2013-03-16 01:52:00,54.0,50.7,30.15,NW,306,2.0,3.0,89,0.00,,,0.00,meteohub,2013-03-16 05:52:00,
2013-03-16 01:57:00,54.0,50.7,30.15,NW,306,0.0,3.0,89,0.00,,,0.00,meteohub,2013-03-16 05:57:00,
2013-03-16 02:02:00,54.1,50.9,30.15,NW,306,0.0,3.0,89,0.00,,,0.00,meteohub,2013-03-16 06:02:00,
2013-03-16 02:12:00,54.1,50.9,30.14,NW,306,1.0,2.0,89,0.00,,,0.00,meteohub,2013-03-16 06:12:00,
2013-03-16 02:17:00,54.0,50.7,30.14,NW,306,0.0,2.0,89,0.00,,,0.00,meteohub,2013-03-16 06:17:00,
2013-03-16 02:22:00,54.0,50.7,30.14,NW,306,0.0,2.0,89,0.00,,,0.00,meteohub,2013-03-16 06:22:00,
2013-03-16 02:27:00,53.6,50.4,30.15,NW,306,0.0,2.0,89,0.00,,,0.00,meteohub,2013-03-16 06:27:00,
2013-03-16 02:37:00,52.5,49.6,30.15,NW,306,0.0,1.0,90,0.00,,,0.00,meteohub,2013-03-16 06:37:00,
2013-03-16 02:42:00,52.3,49.8,30.14,NW,306,0.0,1.0,91,0.00,,,0.00,meteohub,2013-03-16 06:42:00,
2013-03-16 02:47:00,52.2,49.6,30.14,NW,306,0.0,1.0,91,0.00,,,0.00,meteohub,2013-03-16 06:47:00,
2013-03-16 02:52:00,52.2,49.8,30.14,NW,306,0.0,1.0,92,0.00,,,0.00,meteohub,2013-03-16 06:52:00,
2013-03-16 03:02:00,51.6,49.1,30.14,NW,306,0.0,1.0,91,0.00,,,0.00,meteohub,2013-03-16 07:02:00,
2013-03-16 03:07:00,51.6,49.5,30.14,NW,306,0.0,1.0,92,0.00,,,0.00,meteohub,2013-03-16 07:07:00,
2013-03-16 03:12:00,51.4,49.3,30.14,NW,306,0.0,1.0,92,0.00,,,0.00,meteohub,2013-03-16 07:12:00,
2013-03-16 03:17:00,51.3,49.1,30.13,NW,306,0.0,1.0,92,0.00,,,0.00,meteohub,2013-03-16 07:17:00,
2013-03-16 03:22:00,51.1,48.9,30.13,NW,306,0.0,1.0,92,0.00,,,0.00,meteohub,2013-03-16 07:22:00,
2013-03-16 03:27:00,50.9,48.7,30.13,NW,306,0.0,2.0,92,0.00,,,0.00,meteohub,2013-03-16 07:27:00,
2013-03-16 03:32:00,50.9,48.7,30.13,NW,306,0.0,2.0,92,0.00,,,0.00,meteohub,2013-03-16 07:32:00,
2013-03-16 03:37:00,50.7,48.6,30.13,NW,306,0.0,2.0,92,0.00,,,0.00,meteohub,2013-03-16 07:37:00,
2013-03-16 03:42:00,50.7,48.6,30.13,NW,306,0.0,0.0,92,0.00,,,0.00,meteohub,2013-03-16 07:42:00,
2013-03-16 03:52:00,50.9,48.7,30.13,NW,306,0.0,0.0,92,0.00,,,0.00,meteohub,2013-03-16 07:52:00,
2013-03-16 03:57:00,50.7,48.6,30.12,NW,306,0.0,0.0,92,0.00,,,0.00,meteohub,2013-03-16 07:57:00,
2013-03-16 04:02:00,50.7,48.7,30.12,NW,306,0.0,0.0,93,0.00,,,0.00,meteohub,2013-03-16 08:02:00,
2013-03-16 04:12:00,50.5,48.4,30.12,NW,306,0.0,0.0,92,0.00,,,0.00,meteohub,2013-03-16 08:12:00,
2013-03-16 04:17:00,50.4,48.2,30.12,NW,306,0.0,0.0,92,0.00,,,0.00,meteohub,2013-03-16 08:17:00,
2013-03-16 04:22:00,50.2,48.2,30.12,NW,306,0.0,0.0,93,0.00,,,0.00,meteohub,2013-03-16 08:22:00,
2013-03-16 04:32:00,50.2,48.2,30.12,NW,306,1.0,0.0,93,0.00,,,0.00,meteohub,2013-03-16 08:32:00,
2013-03-16 04:37:00,50.2,48.2,30.12,NW,306,0.0,2.0,93,0.00,,,0.00,meteohub,2013-03-16 08:37:00,
2013-03-16 04:42:00,50.4,48.7,30.12,NW,306,2.0,2.0,94,0.00,,,0.00,meteohub,2013-03-16 08:42:00,
2013-03-16 04:47:00,51.4,50.0,30.12,ESE,102,1.0,3.0,95,0.00,,,0.00,meteohub,2013-03-16 08:47:00,
2013-03-16 04:57:00,51.4,49.8,30.12,East,98,1.0,5.0,94,0.00,,,0.00,meteohub,2013-03-16 08:57:00,
2013-03-16 05:02:00,51.6,50.0,30.12,East,98,0.0,5.0,94,0.00,,,0.00,meteohub,2013-03-16 09:02:00,
2013-03-16 05:07:00,51.6,50.0,30.12,East,98,0.0,5.0,94,0.00,,,0.00,meteohub,2013-03-16 09:07:00,
2013-03-16 05:12:00,51.6,50.2,30.12,East,98,0.0,3.0,95,0.00,,,0.00,meteohub,2013-03-16 09:12:00,
2013-03-16 05:22:00,51.6,50.0,30.12,East,98,0.0,2.0,94,0.00,,,0.00,meteohub,2013-03-16 09:22:00,
2013-03-16 05:27:00,51.4,49.8,30.12,East,98,0.0,2.0,94,0.00,,,0.00,meteohub,2013-03-16 09:27:00,
2013-03-16 05:32:00,51.1,49.5,30.12,East,98,0.0,0.0,94,0.00,,,0.00,meteohub,2013-03-16 09:32:00,
2013-03-16 05:37:00,50.5,48.6,30.12,East,98,0.0,0.0,93,0.00,,,0.00,meteohub,2013-03-16 09:37:00,
2013-03-16 05:42:00,50.0,48.4,30.12,East,98,0.0,0.0,94,0.00,,,0.00,meteohub,2013-03-16 09:42:00,
2013-03-16 05:52:00,49.8,48.2,30.12,East,98,0.0,0.0,94,0.00,,,0.00,meteohub,2013-03-16 09:52:00,
2013-03-16 05:57:00,49.6,48.0,30.12,East,98,0.0,0.0,94,0.00,,,0.00,meteohub,2013-03-16 09:57:00,
2013-03-16 06:07:00,49.3,47.7,30.12,East,98,0.0,0.0,94,0.00,,,0.00,meteohub,2013-03-16 10:07:00,
2013-03-16 06:12:00,49.3,47.8,30.12,East,98,0.0,0.0,95,0.00,,,0.00,meteohub,2013-03-16 10:12:00,
2013-03-16 06:17:00,49.1,47.7,30.13,East,98,0.0,0.0,95,0.00,,,0.00,meteohub,2013-03-16 10:17:00,
2013-03-16 06:22:00,48.9,47.3,30.13,East,98,0.0,0.0,94,0.00,,,0.00,meteohub,2013-03-16 10:22:00,
2013-03-16 06:27:00,48.9,47.5,30.13,East,98,0.0,0.0,95,0.00,,,0.00,meteohub,2013-03-16 10:27:00,
2013-03-16 06:32:00,48.9,47.5,30.13,East,98,0.0,0.0,95,0.00,,,0.00,meteohub,2013-03-16 10:32:00,
2013-03-16 06:37:00,49.1,47.7,30.13,East,98,0.0,0.0,95,0.00,,,0.00,meteohub,2013-03-16 10:37:00,
2013-03-16 06:47:00,48.6,47.1,30.13,East,98,0.0,0.0,95,0.00,,,0.00,meteohub,2013-03-16 10:47:00,
2013-03-16 06:52:00,48.7,47.3,30.13,East,98,0.0,0.0,95,0.00,,,0.00,meteohub,2013-03-16 10:52:00,
2013-03-16 06:57:00,48.6,47.1,30.14,East,98,0.0,0.0,95,0.00,,,0.00,meteohub,2013-03-16 10:57:00,
2013-03-16 07:02:00,48.7,47.3,30.14,East,98,0.0,0.0,95,0.00,,,0.00,meteohub,2013-03-16 11:02:00,
2013-03-16 07:12:00,48.7,47.3,30.14,East,98,0.0,0.0,95,0.00,,,0.00,meteohub,2013-03-16 11:12:00,
2013-03-16 07:17:00,48.7,47.3,30.14,East,98,0.0,1.0,95,0.00,,,0.00,meteohub,2013-03-16 11:17:00,
2013-03-16 07:27:00,48.9,47.5,30.14,East,98,0.0,1.0,95,0.00,,,0.00,meteohub,2013-03-16 11:27:00,
2013-03-16 07:32:00,48.9,47.5,30.14,East,98,0.0,1.0,95,0.00,,,0.00,meteohub,2013-03-16 11:32:00,
2013-03-16 07:42:00,48.7,47.3,30.14,East,98,0.0,0.0,95,0.00,,,0.00,meteohub,2013-03-16 11:42:00,
2013-03-16 07:47:00,48.7,47.3,30.15,East,99,0.0,1.0,95,0.00,,,0.00,meteohub,2013-03-16 11:47:00,
2013-03-16 07:52:00,48.9,47.5,30.15,East,99,0.0,2.0,95,0.00,,,0.00,meteohub,2013-03-16 11:52:00,
2013-03-16 07:57:00,48.9,47.5,30.15,East,99,0.0,2.0,95,0.00,,,0.00,meteohub,2013-03-16 11:57:00,
2013-03-16 08:02:00,49.3,48.2,30.15,East,99,0.0,2.0,96,0.00,,,0.00,meteohub,2013-03-16 12:02:00,
2013-03-16 08:07:00,49.6,48.2,30.15,East,99,0.0,1.0,95,0.00,,,0.00,meteohub,2013-03-16 12:07:00,
2013-03-16 08:17:00,49.8,48.4,30.15,East,99,1.0,1.0,95,0.00,,,0.00,meteohub,2013-03-16 12:17:00,
2013-03-16 08:22:00,50.4,49.3,30.15,East,99,0.0,3.0,96,0.00,,,0.00,meteohub,2013-03-16 12:22:00,
2013-03-16 08:27:00,50.9,49.8,30.15,East,99,0.0,3.0,96,0.00,,,0.00,meteohub,2013-03-16 12:27:00,
2013-03-16 08:37:00,52.2,51.1,30.16,East,99,1.0,1.0,96,0.00,,,0.00,meteohub,2013-03-16 12:37:00,
2013-03-16 08:42:00,53.1,52.0,30.16,SE,129,1.0,2.0,96,0.00,,,0.00,meteohub,2013-03-16 12:42:00,
2013-03-16 08:47:00,53.4,52.3,30.16,SE,130,3.0,3.0,96,0.00,,,0.00,meteohub,2013-03-16 12:47:00,
2013-03-16 08:52:00,54.1,53.1,30.16,SSE,148,0.0,4.0,96,0.00,,,0.00,meteohub,2013-03-16 12:52:00,
2013-03-16 08:57:00,54.7,53.2,30.16,South,180,3.0,4.0,95,0.00,,,0.00,meteohub,2013-03-16 12:57:00,
2013-03-16 09:02:00,55.0,53.6,30.16,South,184,2.0,6.0,95,0.00,,,0.00,meteohub,2013-03-16 13:02:00,
2013-03-16 09:07:00,55.8,54.1,30.16,South,184,1.0,6.0,94,0.00,,,0.00,meteohub,2013-03-16 13:07:00,
2013-03-16 09:12:00,56.3,54.3,30.16,South,183,2.0,6.0,93,0.00,,,0.00,meteohub,2013-03-16 13:12:00,
2013-03-16 09:17:00,56.8,54.5,30.16,South,184,1.0,6.0,92,0.00,,,0.00,meteohub,2013-03-16 13:17:00,
2013-03-16 09:27:00,57.9,55.0,30.17,South,184,2.0,6.0,90,0.00,,,0.00,meteohub,2013-03-16 13:27:00,
2013-03-16 09:32:00,58.6,55.0,30.17,South,174,2.0,3.0,88,0.00,,,0.00,meteohub,2013-03-16 13:32:00,
2013-03-16 09:37:00,59.2,55.4,30.17,SSE,156,3.0,4.0,87,0.00,,,0.00,meteohub,2013-03-16 13:37:00,
2013-03-16 09:47:00,59.7,54.9,30.16,South,172,5.0,8.0,84,0.00,,,0.00,meteohub,2013-03-16 13:47:00,
2013-03-16 09:52:00,60.1,55.2,30.16,SSE,161,5.0,8.0,84,0.00,,,0.00,meteohub,2013-03-16 13:52:00,
2013-03-16 10:02:00,60.6,54.1,30.17,South,189,5.0,8.0,79,0.00,,,0.00,meteohub,2013-03-16 14:02:00,
2013-03-16 10:12:00,61.3,54.1,30.16,SSE,163,1.0,9.0,77,0.00,,,0.00,meteohub,2013-03-16 14:12:00,
2013-03-16 10:17:00,61.9,53.1,30.16,SSE,148,5.0,9.0,73,0.00,,,0.00,meteohub,2013-03-16 14:17:00,
2013-03-16 10:22:00,62.2,53.1,30.16,SE,146,3.0,9.0,72,0.00,,,0.00,meteohub,2013-03-16 14:22:00,
2013-03-16 10:27:00,62.2,50.7,30.16,SE,132,5.0,8.0,66,0.00,,,0.00,meteohub,2013-03-16 14:27:00,
2013-03-16 10:32:00,62.6,50.2,30.16,SW,218,7.0,8.0,64,0.00,,,0.00,meteohub,2013-03-16 14:32:00,
2013-03-16 10:37:00,63.0,49.3,30.16,SSE,156,2.0,8.0,61,0.00,,,0.00,meteohub,2013-03-16 14:37:00,
2013-03-16 10:42:00,63.5,49.8,30.16,SE,131,4.0,9.0,61,0.00,,,0.00,meteohub,2013-03-16 14:42:00,
2013-03-16 10:47:00,63.7,48.6,30.16,South,181,7.0,9.0,58,0.00,,,0.00,meteohub,2013-03-16 14:47:00,
2013-03-16 10:52:00,64.2,47.3,30.16,SE,146,6.0,9.0,54,0.00,,,0.00,meteohub,2013-03-16 14:52:00,
2013-03-16 10:57:00,64.2,48.2,30.16,South,186,3.0,8.0,56,0.00,,,0.00,meteohub,2013-03-16 14:57:00,
2013-03-16 11:02:00,64.9,48.4,30.16,SE,130,4.0,8.0,55,0.00,,,0.00,meteohub,2013-03-16 15:02:00,
2013-03-16 11:12:00,65.5,46.4,30.16,SSE,157,5.0,9.0,50,0.00,,,0.00,meteohub,2013-03-16 15:12:00,
2013-03-16 11:22:00,65.8,48.2,30.16,SSE,165,4.0,10.0,53,0.00,,,0.00,meteohub,2013-03-16 15:22:00,
2013-03-16 11:27:00,65.7,48.0,30.16,South,170,6.0,10.0,53,0.00,,,0.00,meteohub,2013-03-16 15:27:00,
2013-03-16 11:32:00,65.7,47.5,30.16,SSE,155,2.0,13.0,52,0.00,,,0.00,meteohub,2013-03-16 15:32:00,
2013-03-16 11:42:00,65.8,46.8,30.16,SSE,163,6.0,13.0,50,0.00,,,0.00,meteohub,2013-03-16 15:42:00,
2013-03-16 11:52:00,66.4,46.6,30.16,SE,140,4.0,11.0,49,0.00,,,0.00,meteohub,2013-03-16 15:52:00,
2013-03-16 12:02:00,66.9,46.0,30.15,SSE,147,4.0,11.0,47,0.00,,,0.00,meteohub,2013-03-16 16:02:00,
2013-03-16 12:07:00,67.3,46.9,30.15,SSE,148,3.0,11.0,48,0.00,,,0.00,meteohub,2013-03-16 16:07:00,
2013-03-16 12:12:00,67.1,45.7,30.15,South,173,3.0,11.0,46,0.00,,,0.00,meteohub,2013-03-16 16:12:00,
2013-03-16 12:17:00,67.6,46.8,30.15,SSW,194,4.0,10.0,47,0.00,,,0.00,meteohub,2013-03-16 16:17:00,
2013-03-16 12:22:00,68.4,46.2,30.15,SE,134,5.0,10.0,45,0.00,,,0.00,meteohub,2013-03-16 16:22:00,
2013-03-16 12:27:00,68.5,46.9,30.15,South,173,6.0,9.0,46,0.00,,,0.00,meteohub,2013-03-16 16:27:00,
2013-03-16 12:32:00,68.7,47.1,30.14,SSE,162,4.0,9.0,46,0.00,,,0.00,meteohub,2013-03-16 16:32:00,
2013-03-16 12:37:00,68.7,47.7,30.14,SE,132,9.0,9.0,47,0.00,,,0.00,meteohub,2013-03-16 16:37:00,
2013-03-16 12:42:00,68.7,47.1,30.14,SSE,157,4.0,10.0,46,0.00,,,0.00,meteohub,2013-03-16 16:42:00,
2013-03-16 12:47:00,69.3,46.9,30.14,SSE,156,1.0,10.0,45,0.00,,,0.00,meteohub,2013-03-16 16:47:00,
2013-03-16 12:52:00,69.4,48.9,30.13,ESE,117,7.0,10.0,48,0.00,,,0.00,meteohub,2013-03-16 16:52:00,
2013-03-16 13:02:00,70.3,49.6,30.13,East,95,6.0,8.0,48,0.00,,,0.00,meteohub,2013-03-16 17:02:00,
2013-03-16 13:07:00,70.5,49.8,30.13,East,84,7.0,9.0,48,0.00,,,0.00,meteohub,2013-03-16 17:07:00,
2013-03-16 13:12:00,70.3,50.4,30.12,East,81,3.0,9.0,49,0.00,,,0.00,meteohub,2013-03-16 17:12:00,
2013-03-16 13:17:00,70.2,50.7,30.12,East,80,6.0,10.0,50,0.00,,,0.00,meteohub,2013-03-16 17:17:00,
2013-03-16 13:22:00,70.3,50.9,30.12,SSE,153,3.0,10.0,50,0.00,,,0.00,meteohub,2013-03-16 17:22:00,
2013-03-16 13:32:00,71.1,50.4,30.12,ESE,115,8.0,13.0,48,0.00,,,0.00,meteohub,2013-03-16 17:32:00,
2013-03-16 13:42:00,71.2,50.5,30.11,SE,138,8.0,10.0,48,0.00,,,0.00,meteohub,2013-03-16 17:42:00,
2013-03-16 13:47:00,70.9,50.2,30.11,East,86,3.0,13.0,48,0.00,,,0.00,meteohub,2013-03-16 17:47:00,
2013-03-16 13:52:00,70.9,50.7,30.11,East,91,7.0,13.0,49,0.00,,,0.00,meteohub,2013-03-16 17:52:00,
2013-03-16 13:57:00,71.2,51.1,30.10,SE,139,4.0,10.0,49,0.00,,,0.00,meteohub,2013-03-16 17:57:00,
2013-03-16 14:02:00,72.1,49.6,30.10,SSE,160,12.0,13.0,45,0.00,,,0.00,meteohub,2013-03-16 18:02:00,
2013-03-16 14:07:00,72.0,49.5,30.10,SE,134,1.0,13.0,45,0.00,,,0.00,meteohub,2013-03-16 18:07:00,
2013-03-16 14:12:00,72.5,50.5,30.09,SE,136,5.0,12.0,46,0.00,,,0.00,meteohub,2013-03-16 18:12:00,
2013-03-16 14:17:00,72.9,50.4,30.09,SSE,147,1.0,12.0,45,0.00,,,0.00,meteohub,2013-03-16 18:17:00,
2013-03-16 14:27:00,73.4,50.7,30.09,SE,142,8.0,9.0,45,0.00,,,0.00,meteohub,2013-03-16 18:27:00,
2013-03-16 14:32:00,73.6,47.8,30.09,WSW,254,4.0,10.0,40,0.00,,,0.00,meteohub,2013-03-16 18:32:00,
2013-03-16 14:37:00,73.6,48.4,30.09,SW,234,5.0,10.0,41,0.00,,,0.00,meteohub,2013-03-16 18:37:00,
2013-03-16 14:42:00,73.6,47.1,30.08,WSW,245,3.0,11.0,39,0.00,,,0.00,meteohub,2013-03-16 18:42:00,
2013-03-16 14:47:00,73.4,46.9,30.08,SSE,167,5.0,11.0,39,0.00,,,0.00,meteohub,2013-03-16 18:47:00,
2013-03-16 14:57:00,74.7,47.3,30.08,WSW,257,2.0,10.0,38,0.00,,,0.00,meteohub,2013-03-16 18:57:00,
2013-03-16 15:02:00,74.8,48.2,30.07,SW,221,7.0,10.0,39,0.00,,,0.00,meteohub,2013-03-16 19:02:00,
2013-03-16 15:07:00,74.7,47.3,30.07,SW,228,8.0,10.0,38,0.00,,,0.00,meteohub,2013-03-16 19:07:00,
2013-03-16 15:12:00,73.6,46.4,30.07,SSW,200,6.0,13.0,38,0.00,,,0.00,meteohub,2013-03-16 19:12:00,
2013-03-16 15:17:00,73.6,46.4,30.07,SW,221,6.0,13.0,38,0.00,,,0.00,meteohub,2013-03-16 19:17:00,
2013-03-16 15:22:00,73.4,46.2,30.07,WSW,254,5.0,13.0,38,0.00,,,0.00,meteohub,2013-03-16 19:22:00,
2013-03-16 15:27:00,73.6,46.4,30.07,West,271,8.0,11.0,38,0.00,,,0.00,meteohub,2013-03-16 19:27:00,
2013-03-16 15:37:00,73.0,44.4,30.07,WSW,254,16.0,16.0,36,0.00,,,0.00,meteohub,2013-03-16 19:37:00,
2013-03-16 15:47:00,73.0,44.4,30.06,WSW,250,12.0,17.0,36,0.00,,,0.00,meteohub,2013-03-16 19:47:00,
2013-03-16 15:52:00,72.9,42.8,30.06,SW,229,11.0,17.0,34,0.00,,,0.00,meteohub,2013-03-16 19:52:00,
2013-03-16 15:57:00,72.7,43.5,30.06,West,273,9.0,15.0,35,0.00,,,0.00,meteohub,2013-03-16 19:57:00,
2013-03-16 16:02:00,72.1,43.7,30.06,SW,218,7.0,16.0,36,0.00,,,0.00,meteohub,2013-03-16 20:02:00,
2013-03-16 16:07:00,72.3,43.9,30.07,West,263,9.0,16.0,36,0.00,,,0.00,meteohub,2013-03-16 20:07:00,
2013-03-16 16:12:00,72.5,44.8,30.07,West,275,5.0,16.0,37,0.00,,,0.00,meteohub,2013-03-16 20:12:00,
2013-03-16 16:22:00,72.0,43.5,30.06,West,262,12.0,14.0,36,0.00,,,0.00,meteohub,2013-03-16 20:22:00,
2013-03-16 16:27:00,71.8,43.3,30.06,West,260,3.0,15.0,36,0.00,,,0.00,meteohub,2013-03-16 20:27:00,
2013-03-16 16:37:00,72.3,43.2,30.06,West,259,13.0,15.0,35,0.00,,,0.00,meteohub,2013-03-16 20:37:00,
2013-03-16 16:42:00,72.0,43.5,30.06,West,274,5.0,15.0,36,0.00,,,0.00,meteohub,2013-03-16 20:42:00,
2013-03-16 16:47:00,72.1,43.7,30.06,SW,216,4.0,15.0,36,0.00,,,0.00,meteohub,2013-03-16 20:47:00,
2013-03-16 16:57:00,71.8,43.3,30.05,West,264,12.0,13.0,36,0.00,,,0.00,meteohub,2013-03-16 20:57:00,
2013-03-16 17:02:00,71.2,43.0,30.05,SW,214,8.0,16.0,36,0.00,,,0.00,meteohub,2013-03-16 21:02:00,
2013-03-16 17:07:00,71.2,44.2,30.05,West,267,6.0,16.0,38,0.00,,,0.00,meteohub,2013-03-16 21:07:00,
2013-03-16 17:17:00,71.1,44.2,30.06,WSW,244,12.0,15.0,38,0.00,,,0.00,meteohub,2013-03-16 21:17:00,
2013-03-16 17:22:00,71.1,43.5,30.06,WSW,255,13.0,15.0,37,0.00,,,0.00,meteohub,2013-03-16 21:22:00,
2013-03-16 17:27:00,70.5,44.4,30.06,WSW,238,9.0,16.0,39,0.00,,,0.00,meteohub,2013-03-16 21:27:00,
2013-03-16 17:32:00,70.3,42.1,30.06,SW,227,7.0,16.0,36,0.00,,,0.00,meteohub,2013-03-16 21:32:00,
2013-03-16 17:37:00,70.3,45.5,30.05,SSW,204,8.0,16.0,41,0.00,,,0.00,meteohub,2013-03-16 21:37:00,
2013-03-16 17:42:00,70.3,45.5,30.06,WSW,244,8.0,15.0,41,0.00,,,0.00,meteohub,2013-03-16 21:42:00,
2013-03-16 17:52:00,70.2,46.6,30.05,WSW,240,10.0,15.0,43,0.00,,,0.00,meteohub,2013-03-16 21:52:00,
2013-03-16 17:57:00,70.3,47.5,30.05,WSW,253,4.0,15.0,44,0.00,,,0.00,meteohub,2013-03-16 21:57:00,
2013-03-16 18:07:00,70.0,47.1,30.05,WSW,250,7.0,12.0,44,0.00,,,0.00,meteohub,2013-03-16 22:07:00,
2013-03-16 18:12:00,69.6,47.3,30.05,WSW,247,9.0,12.0,45,0.00,,,0.00,meteohub,2013-03-16 22:12:00,
2013-03-16 18:22:00,69.6,45.5,30.06,WSW,251,8.0,12.0,42,0.00,,,0.00,meteohub,2013-03-16 22:22:00,
2013-03-16 18:27:00,68.9,47.3,30.06,WSW,238,9.0,13.0,46,0.00,,,0.00,meteohub,2013-03-16 22:27:00,
2013-03-16 18:32:00,68.4,48.9,30.06,SW,235,6.0,13.0,50,0.00,,,0.00,meteohub,2013-03-16 22:32:00,
2013-03-16 18:37:00,68.4,48.9,30.06,SW,222,8.0,13.0,50,0.00,,,0.00,meteohub,2013-03-16 22:37:00,
2013-03-16 18:42:00,68.2,49.8,30.06,SW,218,4.0,12.0,52,0.00,,,0.00,meteohub,2013-03-16 22:42:00,
2013-03-16 18:47:00,68.4,50.0,30.06,SSW,202,4.0,11.0,52,0.00,,,0.00,meteohub,2013-03-16 22:47:00,
2013-03-16 18:52:00,68.2,49.8,30.06,SW,221,8.0,12.0,52,0.00,,,0.00,meteohub,2013-03-16 22:52:00,
2013-03-16 19:02:00,67.5,52.7,30.06,WSW,246,5.0,12.0,59,0.00,,,0.00,meteohub,2013-03-16 23:02:00,
2013-03-16 19:07:00,67.1,53.2,30.06,SW,221,3.0,10.0,61,0.00,,,0.00,meteohub,2013-03-16 23:07:00,
2013-03-16 19:17:00,66.7,52.0,30.06,SW,233,7.0,10.0,59,0.00,,,0.00,meteohub,2013-03-16 23:17:00,
2013-03-16 19:22:00,66.6,51.8,30.06,SW,218,2.0,11.0,59,0.00,,,0.00,meteohub,2013-03-16 23:22:00,
2013-03-16 19:27:00,66.2,52.3,30.06,SW,223,8.0,11.0,61,0.00,,,0.00,meteohub,2013-03-16 23:27:00,
2013-03-16 19:32:00,66.0,53.4,30.06,SW,229,2.0,11.0,64,0.00,,,0.00,meteohub,2013-03-16 23:32:00,
2013-03-16 19:37:00,65.8,54.1,30.06,SW,220,4.0,11.0,66,0.00,,,0.00,meteohub,2013-03-16 23:37:00,
2013-03-16 19:42:00,65.7,54.0,30.06,SW,225,0.0,11.0,66,0.00,,,0.00,meteohub,2013-03-16 23:42:00,
2013-03-16 19:47:00,65.7,54.3,30.06,SW,215,4.0,11.0,67,0.00,,,0.00,meteohub,2013-03-16 23:47:00,
2013-03-16 19:52:00,65.5,54.7,30.06,SSW,202,4.0,8.0,68,0.00,,,0.00,meteohub,2013-03-16 23:52:00,
2013-03-16 19:57:00,65.1,54.7,30.06,SSW,205,8.0,8.0,69,0.00,,,0.00,meteohub,2013-03-16 23:57:00,
2013-03-16 20:02:00,65.1,55.0,30.06,SW,225,6.0,8.0,70,0.00,,,0.00,meteohub,2013-03-17 00:02:00,
2013-03-16 20:07:00,64.9,55.8,30.06,SW,220,5.0,8.0,72,0.00,,,0.00,meteohub,2013-03-17 00:07:00,
2013-03-16 20:12:00,64.8,55.9,30.06,SSW,211,3.0,8.0,73,0.00,,,0.00,meteohub,2013-03-17 00:12:00,
2013-03-16 20:17:00,64.8,56.3,30.06,SW,227,8.0,8.0,74,0.00,,,0.00,meteohub,2013-03-17 00:17:00,
2013-03-16 20:22:00,64.8,56.7,30.06,SW,233,6.0,8.0,75,0.00,,,0.00,meteohub,2013-03-17 00:22:00,
2013-03-16 20:27:00,64.6,56.8,30.06,SSW,196,7.0,9.0,76,0.00,,,0.00,meteohub,2013-03-17 00:27:00,
2013-03-16 20:32:00,64.6,57.2,30.06,SW,222,6.0,9.0,77,0.00,,,0.00,meteohub,2013-03-17 00:32:00,
2013-03-16 20:37:00,64.2,57.6,30.07,SW,227,7.0,9.0,79,0.00,,,0.00,meteohub,2013-03-17 00:37:00,
2013-03-16 20:42:00,64.0,57.7,30.06,SW,219,3.0,9.0,80,0.00,,,0.00,meteohub,2013-03-17 00:42:00,
2013-03-16 20:52:00,63.9,58.3,30.06,SSW,196,3.0,10.0,82,0.00,,,0.00,meteohub,2013-03-17 00:52:00,
2013-03-16 20:57:00,63.7,58.1,30.07,SW,215,6.0,10.0,82,0.00,,,0.00,meteohub,2013-03-17 00:57:00,
2013-03-16 21:02:00,63.5,58.3,30.07,SSW,207,5.0,10.0,83,0.00,,,0.00,meteohub,2013-03-17 01:02:00,
2013-03-16 21:12:00,63.1,57.9,30.06,SW,215,4.0,7.0,83,0.00,,,0.00,meteohub,2013-03-17 01:12:00,
2013-03-16 21:17:00,63.1,57.9,30.07,SW,221,3.0,7.0,83,0.00,,,0.00,meteohub,2013-03-17 01:17:00,
2013-03-16 21:22:00,63.0,58.1,30.07,SW,221,4.0,7.0,84,0.00,,,0.00,meteohub,2013-03-17 01:22:00,
2013-03-16 21:32:00,62.6,57.7,30.07,SW,216,4.0,7.0,84,0.00,,,0.00,meteohub,2013-03-17 01:32:00,
2013-03-16 21:42:00,62.2,57.4,30.07,SW,217,2.0,5.0,84,0.00,,,0.00,meteohub,2013-03-17 01:42:00,
2013-03-16 21:47:00,62.2,57.4,30.08,SW,217,3.0,5.0,84,0.00,,,0.00,meteohub,2013-03-17 01:47:00,
2013-03-16 21:57:00,62.1,57.6,30.08,SW,217,3.0,5.0,85,0.00,,,0.00,meteohub,2013-03-17 01:57:00,
2013-03-16 22:02:00,61.9,57.4,30.08,SW,217,3.0,5.0,85,0.00,,,0.00,meteohub,2013-03-17 02:02:00,
2013-03-16 22:07:00,61.7,57.2,30.08,SW,217,3.0,5.0,85,0.00,,,0.00,meteohub,2013-03-17 02:07:00,
2013-03-16 22:12:00,61.5,57.0,30.08,SW,217,2.0,5.0,85,0.00,,,0.00,meteohub,2013-03-17 02:12:00,
2013-03-16 22:17:00,61.5,57.4,30.08,SW,217,3.0,5.0,86,0.00,,,0.00,meteohub,2013-03-17 02:17:00,
2013-03-16 22:22:00,61.5,57.4,30.08,SW,217,3.0,4.0,86,0.00,,,0.00,meteohub,2013-03-17 02:22:00,
2013-03-16 22:27:00,61.3,57.2,30.09,SW,217,1.0,4.0,86,0.00,,,0.00,meteohub,2013-03-17 02:27:00,
2013-03-16 22:32:00,61.3,57.2,30.09,SW,217,2.0,4.0,86,0.00,,,0.00,meteohub,2013-03-17 02:32:00,
2013-03-16 22:42:00,61.2,57.2,30.09,SW,217,3.0,4.0,87,0.00,,,0.00,meteohub,2013-03-17 02:42:00,
2013-03-16 22:52:00,61.0,57.0,30.09,SW,217,1.0,3.0,87,0.00,,,0.00,meteohub,2013-03-17 02:52:00,
2013-03-16 22:57:00,60.8,56.8,30.09,SW,217,2.0,3.0,87,0.00,,,0.00,meteohub,2013-03-17 02:57:00,
2013-03-16 23:02:00,60.6,56.7,30.08,SW,217,3.0,4.0,87,0.00,,,0.00,meteohub,2013-03-17 03:02:00,
2013-03-16 23:12:00,60.4,56.5,30.09,SW,217,2.0,4.0,87,0.00,,,0.00,meteohub,2013-03-17 03:12:00,
2013-03-16 23:17:00,60.3,56.7,30.09,SW,217,2.0,3.0,88,0.00,,,0.00,meteohub,2013-03-17 03:17:00,
2013-03-16 23:22:00,60.3,56.7,30.09,SW,217,1.0,3.0,88,0.00,,,0.00,meteohub,2013-03-17 03:22:00,
2013-03-16 23:27:00,60.1,56.5,30.09,SW,217,0.0,3.0,88,0.00,,,0.00,meteohub,2013-03-17 03:27:00,
2013-03-16 23:32:00,59.7,56.1,30.09,SW,217,1.0,3.0,88,0.00,,,0.00,meteohub,2013-03-17 03:32:00,
2013-03-16 23:37:00,59.7,56.5,30.09,SW,217,1.0,3.0,89,0.00,,,0.00,meteohub,2013-03-17 03:37:00,
2013-03-16 23:47:00,59.5,56.3,30.08,SW,217,2.0,3.0,89,0.00,,,0.00,meteohub,2013-03-17 03:47:00,
2013-03-16 23:52:00,59.5,56.3,30.08,SW,217,2.0,3.0,89,0.00,,,0.00,meteohub,2013-03-17 03:52:00,
2013-03-16 23:57:00,59.4,56.1,30.08,SW,217,2.0,3.0,89,0.00,,,0.00,meteohub,2013-03-17 03:57:00,